#timestamp,LO_Frequency,Hit,StdDev 
1501257615.6,286046998.3,N,1.2
1501257635.4,286046998.2,N,1.2
1501257655.3,286046998.3,N,1.2
1501257675.1,286046999.0,N,1.2
1501257695.9,286046996.7,N,1.3
1501257715.7,286046997.8,N,1.3
1501257735.5,286046997.1,N,1.4
1501257755.4,286046999.6,N,1.3
1501257775.2,286046997.8,N,1.3
1501257795.1,286046999.2,N,1.3
1501257796.0,286046999.2,N,1.3
1501257815.8,286046996.9,N,1.3
1501257835.6,286046997.0,N,1.4
1501257855.5,286046997.3,N,1.4
1501257875.3,286046996.7,N,1.4
1501257895.2,286046996.8,N,1.4
1501257915.9,286046997.2,N,1.4
1501257935.7,286046995.5,P,1.6
1501257955.6,286046997.5,N,1.3
1501257975.4,286046997.1,N,1.1
1501257995.3,286046997.0,N,1.0
1501258015.1,286046996.9,P,0.1
1501258035.8,286046999.7,N,1.3
1501258055.7,286047000.5,N,1.6
1501258075.5,286047000.2,N,1.5
1501258095.4,286047000.7,N,1.6
1501258115.2,286047000.5,N,1.5
1501258135.0,286047001.1,N,1.5
1501258135.9,286047001.1,N,1.5
1501258155.8,286047000.2,N,1.4
1501258175.6,286047000.8,N,1.4
1501258195.5,286047001.2,N,1.4
1501258215.3,286047000.6,N,1.4
1501258235.1,286047000.9,N,1.3
1501258255.9,286047000.5,N,1.3
1501258275.7,286047001.1,N,1.3
1501258295.6,286047001.1,N,1.2
1501258315.4,286047000.7,N,1.2
1501258335.2,286047000.2,N,1.2
1501258355.1,286047000.9,N,1.2
1501258356.0,286047000.9,N,1.1
1501258375.8,286046999.9,N,1.1
1501258395.7,286047002.7,N,1.2
1501258415.5,286047002.7,N,1.3
1501258435.3,286047001.9,N,1.3
1501258455.2,286047002.6,N,1.3
1501258475.0,286047000.1,N,1.3
1501258475.9,286047000.1,N,1.3
1501258495.8,286047002.8,N,1.3
1501258515.6,286046999.7,N,1.3
1501258535.4,286047002.8,N,1.2
1501258555.3,286046999.9,N,0.9
1501258575.1,286047000.6,N,0.9
1501258595.9,286047000.4,N,0.9
1501258615.7,286047000.0,N,0.9
1501258635.5,286047000.5,N,0.9
1501258655.4,286047000.8,N,0.9
1501258675.2,286047000.0,N,0.9
1501258695.0,286047000.9,N,0.9
1501258695.9,286047000.9,N,0.9
1501258715.8,286047001.2,N,0.9
1501258735.6,286046998.5,N,1.0
1501258755.5,286046998.9,N,1.1
1501258775.3,286046998.3,N,1.2
1501258795.1,286046998.9,N,1.2
1501258815.9,286046998.4,N,1.3
1501258835.7,286047000.8,N,1.3
1501258855.6,286046998.6,N,1.3
1501258875.4,286047000.8,N,1.3
1501258895.2,286047000.9,N,1.3
1501258915.1,286047000.9,N,1.3
1501258916.0,286047000.9,N,1.3
1501258935.8,286047001.0,N,1.3
1501258955.7,286047000.6,N,1.2
1501258975.5,286047000.6,N,1.2
1501258995.3,286047000.0,N,1.1
1501259015.2,286047000.9,N,1.1
1501259035.0,286046999.9,N,1.1
1501259035.9,286046999.9,N,1.0
1501259055.8,286047000.2,N,1.0
1501259075.6,286047000.5,N,0.9
1501259095.4,286046999.7,N,0.9
1501259115.3,286046999.8,N,0.9
1501259135.1,286047000.3,N,0.9
1501259155.8,286047000.2,N,0.9
1501259175.7,286047000.9,N,0.9
1501259195.5,286046998.1,N,0.9
1501259215.4,286047001.0,N,1.0
1501259235.2,286047000.6,N,0.9
1501259255.0,286047002.7,N,1.0
1501259255.9,286047002.7,N,1.1
1501259275.8,286046999.8,N,1.1
1501259295.6,286047002.3,N,1.1
1501259315.5,286047001.7,N,1.1
1501259335.3,286047001.9,N,1.1
1501259355.1,286047001.7,N,1.0
1501259375.9,286047001.5,N,1.0
1501259395.7,286047002.5,N,1.0
1501259415.6,286047002.6,N,1.0
1501259435.4,286047002.3,N,1.1
1501259455.2,286046999.8,N,1.1
1501259475.1,286047000.5,N,1.1
1501259476.0,286047000.5,N,1.1
1501259495.8,286047000.3,N,1.1
1501259515.7,286046999.9,N,1.1
1501259535.5,286046999.8,N,1.1
1501259555.3,286047000.3,N,1.1
1501259575.2,286047002.6,N,1.2
1501259595.0,286047000.2,N,1.1
1501259595.9,286047000.2,N,1.1
1501259615.8,286046999.8,N,1.2
1501259635.6,286046999.9,N,1.2
1501259655.4,286046999.9,N,1.2
1501259675.3,286047000.1,N,1.2
1501259695.1,286047000.3,N,1.2
1501259715.8,286047002.6,N,1.2
1501259735.7,286046999.7,N,1.1
1501259755.5,286046999.8,P,0.6
1501259775.4,286047001.0,N,0.6
1501259795.2,286047000.8,N,0.5
1501259815.0,286046998.3,P,1.2
1501259816.0,286046998.3,N,1.1
1501259835.8,286046998.3,N,1.0
1501259855.6,286046998.9,N,0.9
1501259875.5,286046999.3,N,0.8
1501259895.3,286046998.6,N,0.8
1501259915.1,286047000.9,N,1.0
1501259935.9,286046998.6,N,1.0
1501259955.7,286046998.5,N,0.9
1501259975.6,286046998.2,N,0.9
1501259995.4,286047001.1,N,1.1
1501260015.2,286046999.0,N,1.0
1501260035.1,286046999.3,N,1.0
1501260036.0,286046999.3,N,0.9
1501260055.8,286046997.0,P,1.1
1501260075.7,286046998.2,N,0.9
1501260095.5,286047000.0,N,1.1
1501260115.4,286047002.8,N,2.0
1501260135.2,286047002.5,N,2.1
1501260155.0,286047002.2,N,2.1
1501260155.9,286047002.2,N,2.1
1501260175.8,286047001.8,N,2.0
1501260195.6,286047001.4,N,1.9
1501260215.4,286047004.3,N,2.1
1501260235.3,286047001.7,N,2.0
1501260255.1,286047001.3,N,1.9
1501260275.9,286047004.1,N,2.0
1501260295.7,286047003.1,N,2.0
1501260315.5,286047003.7,N,2.0
1501260335.4,286047001.8,N,2.0
1501260355.2,286047002.5,N,1.9
1501260375.1,286047002.1,N,1.9
1501260376.0,286047002.1,N,1.8
1501260395.8,286046999.9,N,1.8
1501260415.6,286047000.3,N,1.8
1501260435.5,286047002.3,N,1.8
1501260455.3,286046999.9,N,1.8
1501260475.2,286047000.8,N,1.7
1501260495.9,286046999.8,N,1.7
1501260515.7,286047002.6,N,1.7
1501260535.6,286047004.4,N,1.8
1501260555.4,286047004.2,N,1.8
1501260575.2,286047004.3,N,1.8
1501260595.1,286047004.2,N,1.8
1501260596.0,286047004.2,N,1.6
1501260615.8,286047005.2,P,1.5
1501260635.7,286047001.6,N,1.6
1501260655.5,286047001.4,N,1.5
1501260675.3,286047002.4,N,1.4
1501260695.2,286047002.0,N,1.3
1501260715.0,286047001.7,N,1.2
1501260715.9,286047001.7,N,1.1
1501260735.8,286047002.0,N,1.1
1501260755.6,286047002.1,N,1.0
1501260775.4,286047002.3,N,1.0
1501260795.3,286047002.3,N,0.9
1501260815.1,286047000.1,N,1.1
1501260835.9,286046999.9,N,1.2
1501260855.7,286047000.0,N,1.2
1501260875.5,286047000.1,N,1.3
1501260895.4,286046999.8,N,1.3
1501260915.2,286047001.9,N,1.3
1501260935.1,286047000.2,N,1.3
1501260936.0,286047000.2,N,1.3
1501260955.8,286047002.8,N,1.3
1501260975.6,286047001.7,N,1.2
1501260995.5,286047002.1,N,1.2
1501261015.3,286047000.2,N,1.2
1501261035.1,286047001.1,N,1.2
1501261055.9,286047000.7,N,1.2
1501261075.7,286047000.2,N,1.2
1501261095.6,286047001.6,N,1.2
1501261115.4,286047001.7,N,1.2
1501261135.2,286047001.3,N,1.1
1501261155.1,286047002.0,N,1.1
1501261156.0,286047002.0,N,0.9
1501261175.8,286047002.6,N,0.9
1501261195.7,286047002.5,N,0.9
